Temperature
5 4 4 5 5 6 5 5 5 5 6 5 4 5 5 6 5 5 5 6 6 6 7 6 6 7 7 7 7 7 7 7 7 7 8 8 8 8 8 8 8 8 8 8
4 4 4 5 5 5 5 5 5 5 5 5 4 4 5 5 5 5 5 6 6 6 6 6 6 6 6 6 7 7 7 7 7 7 7 7 7 7 7 8 8 8 8 8
4 4 5 5 5 5 5 4 4 4 4 4 4 4 5 5 5 5 5 6 6 6 6 6 6 6 6 6 6 6 6 6 6 6 6 6 7 7 7 7 7 7 7 7
3 4 5 5 4 5 5 5 5 4 4 3 4 4 4 4 4 4 4 5 5 5 5 5 5 5 5 6 6 6 6 6 6 6 6 6 6 6 6 6 6 6 6 6
3 3 4 4 4 4 4 4 4 3 3 2 3 3 4 3 4 4 4 4 5 5 5 5 5 5 5 5 5 5 5 5 5 6 6 6 6 6 6 5 6 6 6 6
3 3 3 4 4 4 3 3 3 1 2 3 3 3 4 3 4 4 3 4 5 5 5 5 5 5 5 5 5 5 5 5 5 5 5 5 5 5 5 5 5 5 5 5
3 3 3 3 3 3 3 2 3 3 2 2 2 2 3 3 3 3 3 4 4 4 4 4 4 4 5 5 5 4 4 5 5 4 4 4 4 4 4 4 4 4 4 5
3 3 3 3 3 3 2 3 3 3 3 2 2 2 3 3 3 3 3 4 4 4 4 4 4 4 4 4 4 4 4 4 4 4 4 4 4 4 4 4 4 4 4 4
2 2 2 3 3 3 2 1 2 1 1 1 2 2 3 3 3 2 3 3 3 4 4 4 3 4 4 4 4 4 4 4 4 3 4 4 4 3 3 3 3 3 3 3
2 2 2 2 2 2 2 1 0 1 3 3 3 3 3 3 2 2 1 2 3 3 3 3 3 3 3 3 3 3 3 3 3 3 3 3 3 3 3 3 3 3 3 3
1 1 1 1 1 1 1 1 1 0 1 2 3 4 3 2 2 1 1 2 2 3 3 3 3 3 2 2 3 3 3 2 2 2 3 3 3 2 2 2 2 2 2 2
-0 -0 0 0 -0 0 1 1 0 1 1 -0 1 2 3 1 1 1 1 2 2 2 2 2 2 2 2 2 2 2 2 2 2 2 2 2 2 2 2 2 2 2 2 2
-0 -0 1 1 1 -0 -1 -0 -1 -1 -0 -1 1 3 2 1 1 1 1 2 2 2 2 2 2 2 2 2 2 2 2 2 2 2 2 2 2 2 2 2 2 2 2 2
0 -1 1 2 2 0 -1 -1 -1 -1 -0 -0 -0 1 2 1 1 1 1 1 1 1 1 1 1 1 1 1 2 2 1 1 1 1 1 1 2 2 2 1 1 1 1 1
-1 -1 -1 -1 -0 -1 -1 -1 -2 -1 -0 0 1 0 1 0 -0 0 1 1 1 1 1 1 1 1 1 1 1 1 1 1 1 1 1 1 1 1 1 1 1 1 1 1
-2 -2 -2 -1 -1 -1 -1 -1 -2 -2 -1 -1 -1 -0 -0 -0 -0 -0 -0 0 -0 0 0 0 0 0 0 1 1 1 1 1 1 1 1 1 1 1 1 1 1 1 1 1
-3 -3 -1 -1 -1 -1 -0 -1 -2 -2 -2 -2 -1 -0 -1 -2 -1 -1 -1 -0 -0 -0 -0 -0 -0 0 0 0 0 0 0 0 0 1 1 1 1 1 1 1 1 0 0 0
-3 -3 -3 -2 -1 0 1 -1 -2 -2 -2 -3 -2 -2 -2 -2 -1 -1 -0 -1 -1 -0 -0 -0 -0 -0 -0 -0 -0 -0 -0 -0 0 0 1 1 0 0 0 0 0 0 -0 -0
-4 -3 -3 -2 -1 -1 -0 -1 -2 -2 -1 -2 -3 -3 -2 -2 -2 -1 -0 -1 -1 -1 -1 -1 -1 -1 -0 -0 -0 -0 -0 -0 -0 -0 0 0 -0 -0 -0 -0 -0 -0 -1 -1
-4 -4 -3 -3 -1 0 1 -1 -2 -1 -1 -1 -2 -3 -3 -3 -2 -1 -1 -1 -1 -1 -1 -1 -1 -1 -1 -1 -1 -1 -1 -1 -1 -1 -1 -1 -1 -1 -1 -1 -1 -1 -1 -1
-4 -4 -4 -3 -2 -1 -1 -2 -2 -0 0 -1 -1 -2 -2 -3 -2 -1 -1 -1 -1 -1 -1 -1 -1 -1 -1 -1 -1 -1 -1 -1 -1 -1 -1 -1 -1 -1 -1 -1 -1 -1 -2 -2
-4 -4 -4 -4 -2 -1 -2 -3 -2 -1 -0 -1 -1 -1 -1 -1 -1 -1 -1 -1 -1 -1 -1 -1 -1 -1 -1 -1 -1 -1 -1 -1 -2 -2 -1 -2 -2 -2 -2 -2 -2 -2 -2 -3
-5 -4 -4 -3 -1 -1 -2 -1 -1 -1 -1 -1 -1 -1 -1 -1 -1 -1 -1 -1 -1 -1 -1 -1 -1 -1 -1 -1 -2 -2 -2 -2 -2 -2 -2 -2 -2 -2 -2 -3 -3 -3 -3 -3
-5 -5 -5 -5 -4 -3 -1 -1 -1 -1 -1 -1 -1 -1 -1 -1 -2 -2 -2 -2 -2 -2 -2 -2 -2 -2 -2 -2 -2 -2 -2 -2 -2 -2 -2 -3 -3 -3 -3 -3 -3 -3 -3 -4
-4 -6 -5 -5 -4 -3 -1 -0 -0 -0 -1 -1 -1 -1 -1 -2 -2 -2 -2 -2 -2 -2 -2 -2 -2 -2 -3 -2 -2 -3 -3 -3 -3 -3 -3 -3 -3 -3 -3 -4 -4 -4 -4 -4
-5 -5 -4 -3 -2 -3 -1 0 -0 -1 -1 -1 -1 -2 -2 -2 -2 -2 -2 -3 -3 -3 -3 -3 -3 -3 -3 -3 -3 -3 -3 -3 -3 -4 -4 -4 -4 -4 -4 -4 -4 -4 -4 -4
Wind_Speed
3 2 3 5 6 4 3 3 4 5 3 2 6 10 12 8 5 6 6 5 5 6 4 3 2 2 1 1 2 2 3 3 1 1 1 1 2 2 2 2 3 3 4 3
3 2 5 3 2 2 3 4 5 5 2 3 6 11 11 8 6 7 7 6 6 5 4 3 3 2 2 2 3 3 3 3 2 1 1 2 2 2 2 3 3 3 3 3
4 2 2 2 2 2 4 5 5 5 5 3 4 8 7 5 4 4 4 5 5 5 5 4 4 3 2 3 4 4 4 4 3 2 1 1 1 2 2 2 3 3 3 3
1 3 1 1 2 3 5 4 4 4 2 4 1 6 7 5 5 5 5 4 5 5 4 4 4 4 4 4 3 3 4 4 3 2 2 2 2 3 3 3 3 3 3 3
1 1 1 2 4 3 4 1 1 2 2 4 2 4 9 3 5 7 5 5 5 5 4 5 5 5 4 3 3 3 4 4 3 2 3 3 3 3 3 3 3 4 3 3
2 1 1 2 2 1 2 2 2 2 2 4 5 5 7 4 5 6 5 4 4 4 4 4 4 3 3 3 3 3 3 4 3 3 3 3 4 4 4 4 4 4 3 3
4 2 1 0 2 2 3 4 3 4 2 6 2 4 8 6 4 4 5 5 4 3 3 3 4 3 4 4 4 4 3 4 3 3 3 4 5 5 5 5 4 4 3 3
1 4 2 1 2 2 2 4 4 4 4 5 2 6 7 4 4 4 3 2 2 2 2 3 4 4 4 5 5 4 4 4 4 4 4 4 4 4 4 5 4 4 4 4
2 3 2 1 1 3 3 2 3 3 1 4 6 7 7 3 5 5 4 3 3 3 3 3 4 4 4 4 4 4 4 5 4 4 4 4 4 4 5 5 4 4 4 3
3 2 3 2 1 2 2 5 3 3 1 4 6 5 5 5 5 5 5 5 5 4 4 4 4 4 4 4 4 4 4 4 4 4 4 4 4 5 5 4 4 4 4 3
2 2 3 2 2 3 2 2 3 2 3 3 4 6 3 4 4 4 5 5 5 5 5 5 5 5 5 5 4 4 4 4 4 4 4 4 5 5 4 4 5 4 4 4
1 2 2 5 2 1 2 3 5 3 3 3 3 7 3 3 3 3 5 5 5 5 5 5 5 5 5 5 5 4 4 4 5 5 4 5 5 4 4 5 5 4 4 4
3 3 2 5 2 1 1 2 2 3 3 4 4 7 2 4 5 4 4 6 6 6 6 5 5 5 6 6 5 5 5 5 5 4 4 4 4 4 5 5 5 4 4 4
2 2 5 6 6 3 4 4 4 4 4 5 8 10 9 8 8 8 7 6 6 6 6 6 6 6 6 6 5 5 5 5 5 4 5 5 4 4 5 4 4 4 4 4
2 2 4 6 6 3 5 6 6 8 7 8 8 8 11 8 7 7 6 6 7 7 7 7 7 7 7 7 6 6 6 5 5 4 5 5 4 3 3 3 3 3 3 3
1 1 1 4 3 3 5 6 7 7 6 8 9 11 8 7 4 5 6 6 7 7 7 8 8 8 8 8 7 7 6 6 5 5 5 4 3 3 3 2 2 2 2 2
1 2 1 4 4 3 6 6 7 5 5 6 8 8 5 7 6 7 7 6 7 7 8 8 8 8 8 7 6 6 6 5 5 5 4 3 3 3 3 2 1 1 1 0
4 3 1 2 3 4 5 1 4 4 4 5 5 5 6 7 8 7 5 5 6 7 8 8 8 8 8 7 6 5 5 5 4 4 4 3 3 2 2 0 0 0 0 0
3 4 2 1 2 7 6 1 2 3 5 4 5 6 6 6 6 5 2 3 6 7 7 7 7 7 7 6 5 4 4 4 4 4 4 3 2 2 1 1 1 0 1 1
3 2 2 2 2 5 5 1 1 1 4 2 3 4 4 4 4 5 5 7 7 6 6 6 7 6 6 6 4 3 4 4 5 5 4 3 2 2 2 1 1 1 1 1
1 1 3 3 4 7 5 1 2 2 5 3 3 3 3 3 5 6 7 7 7 6 6 6 5 5 5 5 4 4 4 5 5 4 4 3 2 2 1 1 2 2 2 2
5 4 4 4 3 7 1 3 4 5 3 2 3 3 4 5 6 6 6 7 7 7 7 6 5 5 5 4 4 4 5 5 5 4 4 4 3 3 2 2 2 2 2 2
6 6 5 7 6 4 3 5 4 3 3 4 3 4 3 5 6 6 6 6 7 7 7 6 5 5 5 5 4 4 5 5 4 5 5 4 4 4 3 2 2 2 2 1
4 2 3 4 7 6 6 5 5 4 5 5 4 4 3 4 5 5 5 6 6 6 6 5 5 6 6 6 5 4 5 5 4 5 5 5 4 4 4 3 2 2 1 1
4 4 3 5 6 6 4 5 5 4 4 4 4 3 3 3 4 4 4 5 5 5 5 5 4 5 6 6 6 6 5 5 4 4 4 4 4 3 4 4 3 2 1 1
4 6 6 6 5 4 5 4 3 3 4 4 3 4 3 2 4 4 4 4 4 5 5 5 5 5 5 6 6 6 5 4 3 4 4 3 3 2 2 3 3 5 4 5
Wind_Direction
41 92 212 224 212 208 191 211 263 274 292 276 262 271 275 277 260 254 253 248 249 255 263 266 263 270 289 308 296 277 280 274 266 284 274 270 277 282 284 278 283 287 284 272
46 265 250 223 209 217 222 247 267 288 309 276 282 280 273 261 245 237 238 240 244 261 286 281 269 258 251 267 279 276 276 269 248 239 228 226 245 253 260 275 289 285 282 278
175 256 269 186 206 223 252 230 243 264 320 331 316 297 275 271 253 251 244 236 233 234 246 259 265 262 261 266 266 271 276 269 259 249 239 293 318 307 298 292 278 282 282 276
220 288 258 188 229 215 255 253 240 253 300 295 7 291 285 279 285 271 265 259 249 249 245 249 255 264 259 260 265 272 275 267 261 245 227 224 242 261 267 270 273 282 283 275
285 330 261 237 251 211 222 296 274 269 230 292 264 241 282 298 284 276 268 259 256 253 244 246 251 252 259 266 274 275 273 270 261 242 225 226 250 260 278 281 286 284 275 271
264 283 243 237 278 186 160 51 34 38 67 272 239 209 279 258 255 277 280 271 258 251 252 259 262 264 281 294 296 288 278 283 276 251 235 228 238 254 269 277 276 278 276 269
335 317 314 21 37 9 72 76 13 348 334 255 229 218 254 265 265 260 265 270 262 248 259 270 276 283 289 297 296 283 273 286 283 261 247 239 238 241 246 258 265 269 272 272
337 303 301 345 178 190 188 149 167 220 249 283 273 241 259 281 295 289 265 266 286 285 291 291 288 289 292 291 285 274 274 279 279 265 257 246 238 237 246 253 254 257 257 258
189 269 329 317 307 152 146 181 178 150 266 281 271 281 299 304 326 337 341 340 315 316 320 310 305 291 291 286 280 274 274 277 274 267 263 256 243 238 246 252 253 257 260 259
164 260 306 314 45 25 143 151 114 142 212 276 289 279 274 294 308 324 325 314 305 317 321 310 305 305 307 303 295 291 275 271 272 265 265 266 252 244 243 250 257 261 260 253
147 180 311 349 186 205 128 132 143 150 176 197 281 278 245 261 279 284 287 296 303 303 302 301 302 304 304 308 306 305 299 298 292 281 275 271 262 255 249 249 255 255 255 250
141 133 267 264 257 203 193 189 161 175 232 203 230 271 293 274 292 294 301 311 320 315 308 305 303 309 311 306 304 299 298 297 290 288 280 271 264 259 250 250 253 248 248 244
139 125 348 337 333 346 260 223 190 156 152 191 214 265 315 343 338 327 315 317 327 328 327 323 318 312 308 303 299 295 296 293 291 290 285 279 271 259 251 249 251 247 245 246
114 162 196 227 249 218 239 234 204 175 197 226 234 263 295 314 321 320 315 314 321 322 326 325 322 316 310 307 303 299 298 294 294 293 289 283 272 263 256 248 246 246 244 242
110 214 238 262 271 249 241 236 210 210 213 223 252 258 277 292 295 299 303 315 324 325 327 324 320 317 316 317 313 308 303 303 301 296 290 285 286 278 266 253 245 246 245 248
69 197 264 283 282 263 271 255 227 232 235 245 267 274 278 297 304 309 305 308 314 314 315 316 316 315 314 313 312 311 308 308 308 295 284 287 296 292 271 261 249 243 246 245
159 150 236 278 319 332 282 246 209 215 217 206 237 259 307 316 310 302 299 302 300 303 306 308 308 305 304 305 306 304 302 306 307 303 296 291 293 295 285 265 244 237 239 221
158 143 177 287 14 262 257 309 192 216 251 224 248 280 294 294 299 293 283 291 297 303 305 308 310 309 308 307 306 309 315 312 308 313 313 307 302 302 310 310 236 241 121 104
174 159 161 168 257 280 295 269 167 199 277 230 241 280 303 319 324 311 305 320 301 299 301 303 305 306 310 312 314 322 333 336 331 327 322 319 321 328 351 6 1 47 80 56
75 116 144 155 208 252 269 279 244 117 293 268 230 272 302 344 338 300 314 323 318 315 314 313 315 316 321 322 331 342 342 345 334 326 323 329 346 5 4 353 12 51 68 49
106 117 172 195 232 265 269 281 110 143 270 294 240 256 257 248 250 282 311 319 320 320 319 324 327 329 330 336 349 350 346 333 325 333 345 352 3 9 31 34 33 48 53 48
177 175 195 172 211 260 225 125 178 236 281 270 260 257 259 270 286 299 310 316 324 331 335 337 339 336 341 353 0 350 335 330 343 355 4 6 11 18 36 52 41 44 62 57
201 196 195 198 217 256 199 215 245 250 268 270 267 273 275 284 291 302 311 318 325 332 334 339 343 345 352 358 0 342 332 345 360 13 13 14 18 28 32 42 45 45 50 63
247 200 193 254 263 259 254 259 269 257 259 273 272 271 274 276 286 301 311 319 327 332 334 343 355 357 351 353 357 349 346 360 17 17 13 21 25 22 21 25 35 51 40 41
226 174 202 257 275 294 274 251 260 267 271 282 292 279 273 277 290 297 307 315 322 331 336 347 355 348 343 349 352 351 357 9 16 12 13 20 21 18 19 22 26 24 10 11
197 184 191 234 240 228 268 280 261 256 273 281 294 308 314 294 291 304 305 315 326 333 340 345 349 347 342 347 346 348 356 11 17 11 11 13 11 15 22 26 28 28 28 24
Height
1484 1488 1490 1489 1490 1489 1491 1493 1494 1491 1489 1490 1488 1484 1479 1476 1476 1475 1474 1474 1474 1473 1474 1475 1475 1475 1475 1476 1476 1476 1476 1476 1476 1476 1476 1476 1475 1476 1476 1477 1477 1478 1478 1478
1489 1490 1488 1487 1488 1489 1491 1493 1493 1491 1488 1488 1487 1482 1476 1473 1472 1471 1470 1470 1470 1471 1471 1471 1472 1472 1473 1473 1473 1473 1473 1473 1473 1473 1473 1473 1472 1472 1472 1473 1474 1474 1474 1474
1489 1489 1487 1487 1489 1490 1490 1492 1491 1491 1489 1488 1488 1480 1474 1469 1468 1468 1467 1467 1467 1468 1468 1468 1469 1469 1469 1469 1470 1470 1470 1470 1469 1469 1469 1469 1468 1468 1468 1469 1469 1470 1470 1470
1489 1488 1487 1487 1489 1489 1490 1488 1489 1489 1492 1494 1492 1490 1473 1469 1467 1465 1464 1464 1464 1465 1465 1465 1466 1466 1466 1466 1467 1467 1467 1466 1466 1466 1465 1465 1464 1463 1464 1465 1465 1465 1465 1466
1489 1488 1487 1487 1488 1488 1489 1488 1490 1490 1493 1496 1493 1494 1475 1470 1467 1463 1461 1461 1462 1462 1462 1462 1463 1463 1463 1463 1463 1463 1463 1462 1462 1461 1461 1461 1460 1460 1461 1461 1460 1460 1461 1461
1488 1488 1488 1487 1487 1487 1488 1490 1492 1495 1497 1497 1491 1492 1478 1472 1466 1461 1460 1459 1459 1460 1460 1459 1460 1460 1460 1459 1459 1460 1459 1458 1458 1457 1457 1457 1456 1456 1456 1456 1455 1455 1455 1456
1490 1488 1487 1487 1488 1488 1489 1495 1499 1498 1504 1496 1489 1488 1475 1465 1462 1460 1458 1457 1457 1457 1457 1457 1457 1456 1456 1456 1456 1456 1455 1454 1454 1453 1453 1452 1452 1452 1452 1451 1451 1450 1450 1450
1493 1492 1489 1487 1488 1490 1491 1493 1499 1498 1498 1494 1489 1484 1469 1462 1460 1458 1457 1456 1455 1455 1455 1455 1454 1454 1453 1453 1453 1452 1451 1450 1450 1449 1448 1448 1447 1447 1447 1447 1447 1446 1446 1445
1494 1492 1489 1487 1487 1488 1491 1495 1494 1501 1504 1499 1487 1479 1467 1459 1458 1456 1455 1454 1454 1454 1453 1453 1453 1452 1451 1451 1450 1448 1447 1446 1446 1445 1444 1443 1443 1443 1442 1442 1442 1442 1441 1441
1493 1495 1491 1489 1488 1489 1490 1492 1498 1499 1496 1490 1482 1479 1471 1461 1459 1458 1456 1454 1453 1452 1452 1451 1450 1450 1449 1448 1447 1446 1444 1443 1442 1441 1440 1439 1438 1438 1438 1438 1437 1437 1437 1437
1493 1496 1494 1491 1491 1492 1492 1494 1495 1498 1498 1495 1487 1475 1463 1462 1460 1458 1456 1454 1453 1452 1451 1449 1448 1447 1446 1445 1444 1443 1441 1440 1439 1437 1436 1434 1434 1433 1433 1433 1433 1433 1433 1433
1493 1497 1497 1494 1492 1491 1490 1491 1493 1494 1496 1499 1495 1479 1461 1460 1458 1457 1456 1454 1453 1451 1450 1448 1447 1445 1444 1443 1441 1440 1438 1437 1435 1433 1432 1430 1429 1429 1428 1428 1428 1429 1429 1429
1493 1496 1496 1492 1494 1494 1492 1491 1492 1493 1496 1499 1491 1474 1460 1459 1457 1456 1455 1453 1452 1450 1448 1446 1445 1443 1441 1440 1438 1437 1435 1433 1432 1430 1428 1426 1425 1424 1424 1424 1424 1425 1425 1425
1491 1495 1494 1490 1486 1488 1490 1490 1491 1491 1492 1491 1485 1471 1462 1460 1458 1456 1454 1453 1451 1449 1446 1444 1443 1441 1439 1437 1435 1433 1432 1430 1428 1426 1424 1423 1421 1421 1421 1420 1421 1421 1421 1421
1491 1493 1493 1490 1487 1487 1486 1486 1488 1488 1483 1483 1474 1472 1462 1460 1459 1456 1453 1451 1449 1447 1445 1443 1441 1439 1436 1434 1432 1430 1428 1427 1425 1423 1421 1419 1418 1418 1418 1417 1417 1417 1417 1417
1491 1494 1493 1489 1485 1485 1484 1481 1482 1482 1481 1479 1475 1469 1461 1459 1457 1455 1452 1450 1448 1445 1443 1442 1440 1437 1434 1432 1429 1427 1425 1423 1421 1420 1418 1417 1416 1415 1415 1414 1414 1414 1414 1414
1493 1494 1493 1489 1487 1483 1480 1474 1476 1476 1474 1474 1471 1465 1461 1458 1456 1454 1451 1449 1447 1445 1443 1440 1438 1435 1432 1429 1427 1425 1423 1421 1418 1417 1415 1414 1413 1412 1412 1411 1411 1411 1411 1411
1492 1494 1496 1492 1489 1484 1471 1469 1469 1470 1469 1469 1466 1463 1461 1458 1455 1452 1450 1448 1445 1443 1441 1438 1435 1432 1430 1427 1424 1422 1420 1418 1416 1414 1413 1412 1411 1410 1410 1409 1409 1408 1408 1408
1488 1492 1495 1494 1491 1482 1470 1468 1469 1470 1467 1463 1463 1461 1459 1456 1453 1450 1449 1447 1445 1442 1439 1436 1433 1430 1427 1425 1422 1420 1418 1416 1414 1413 1412 1410 1409 1409 1408 1407 1407 1406 1406 1406
1490 1491 1495 1495 1487 1479 1468 1467 1466 1468 1466 1460 1460 1459 1458 1456 1456 1451 1447 1445 1442 1440 1437 1434 1431 1428 1426 1423 1421 1419 1417 1415 1413 1412 1410 1409 1408 1407 1406 1406 1405 1405 1404 1405
1492 1494 1495 1494 1489 1477 1467 1466 1466 1470 1464 1459 1458 1457 1456 1455 1454 1450 1447 1444 1441 1438 1435 1432 1430 1427 1424 1422 1420 1418 1416 1414 1413 1411 1410 1408 1407 1406 1405 1404 1403 1403 1403 1403
1487 1491 1492 1491 1488 1476 1465 1465 1467 1463 1459 1457 1456 1455 1454 1452 1450 1447 1445 1442 1439 1437 1434 1431 1428 1426 1423 1421 1419 1417 1415 1414 1412 1411 1409 1407 1406 1405 1404 1403 1403 1403 1403 1403
1482 1479 1478 1478 1472 1464 1462 1461 1460 1459 1457 1456 1455 1453 1452 1450 1448 1446 1443 1441 1438 1436 1433 1430 1428 1425 1423 1421 1419 1417 1415 1414 1412 1410 1408 1407 1406 1405 1404 1403 1403 1403 1403 1403
1476 1474 1475 1473 1465 1461 1460 1459 1458 1457 1456 1454 1453 1451 1450 1448 1446 1444 1442 1440 1437 1435 1432 1430 1427 1424 1422 1421 1419 1417 1415 1414 1412 1410 1409 1408 1406 1405 1404 1404 1403 1403 1403 1402
1469 1471 1472 1469 1462 1458 1456 1456 1455 1454 1453 1452 1451 1449 1448 1446 1444 1442 1440 1438 1436 1434 1432 1430 1427 1425 1423 1421 1419 1418 1416 1414 1412 1410 1409 1408 1407 1406 1405 1404 1404 1403 1403 1403
1464 1465 1466 1461 1457 1456 1454 1453 1453 1451 1450 1449 1448 1446 1445 1444 1442 1441 1439 1437 1435 1433 1431 1429 1427 1425 1423 1421 1419 1418 1416 1414 1412 1410 1409 1408 1407 1406 1405 1405 1404 1404 1404 1403